When you browse on this site, cookies collect data to enhance your experience and personalize the content and advertising you see.
Visit our Privacy Policy to learn more. By continuing to use the site, you agree to this use of cookies and data.
  • In Denmark
  • List of Countries
  • For 7 days
  • Water Temperature
  • Satellite Maps
  • Weather Map
  • Weather Widgets
  • user-avatar
    Login

    Hourly Weather Sevan

    Today, 19 April, Friday

    Time Temperature Precipitation Wind Pressure Humidity
    00:00 +6°C° 0.2 mm 1 mps 637 mmHg 72%
    01:00 +6°C° 0.2 mm 1 mps 637 mmHg 73%
    02:00 +5°C° 0.2 mm 1 mps 637 mmHg 75%
    03:00 +5°C° 0.2 mm 1 mps 636 mmHg 76%
    04:00 +5°C° 0.2 mm 1 mps 636 mmHg 76%
    05:00 +5°C° 0.2 mm 1 mps 636 mmHg 76%
    06:00 +5°C° 0.2 mm 1 mps 636 mmHg 76%
    07:00 +6°C° 0.3 mm 1 mps 636 mmHg 72%
    08:00 +7°C° 0.3 mm 1 mps 637 mmHg 68%
    09:00 +8°C° 0.3 mm 1 mps 637 mmHg 64%
    10:00 +8°C° 0.3 mm 1 mps 636 mmHg 62%
    11:00 +9°C° 0.3 mm 1 mps 636 mmHg 60%
    12:00 +9°C° 0.3 mm 1 mps 636 mmHg 59%
    13:00 +10°C° 0.3 mm 1 mps 636 mmHg 58%
    14:00 +10°C° 0.3 mm 1 mps 636 mmHg 58%
    15:00 +9°C° 0.3 mm 2 mps 636 mmHg 57%
    16:00 +8°C° 0.2 mm 2 mps 635 mmHg 60%
    17:00 +8°C° 0.2 mm 2 mps 635 mmHg 62%
    18:00 +7°C° 0.2 mm 3 mps 635 mmHg 64%
    19:00 +5°C° 0.1 mm 3 mps 635 mmHg 67%
    20:00 +5°C° 0.1 mm 3 mps 635 mmHg 70%
    21:00 +4°C° 0.1 mm 3 mps 635 mmHg 74%
    22:00 +4°C° 0.3 mm 3 mps 635 mmHg 74%
    23:00 +3°C° 0.3 mm 3 mps 635 mmHg 73%

    Tomorrow, 20 April, Saturday

    Time Temperature Precipitation Wind Pressure Humidity
    00:00 +3°C° 0.3 mm 4 mps 635 mmHg 73%
    01:00 +3°C° 0.3 mm 4 mps 635 mmHg 73%
    02:00 +1°C° 0.3 mm 4 mps 635 mmHg 73%
    03:00 +1°C° 0.3 mm 4 mps 635 mmHg 73%
    04:00 +2°C° 0.3 mm 3 mps 635 mmHg 73%
    05:00 +2°C° 0.3 mm 3 mps 635 mmHg 73%
    06:00 +2°C° 0.3 mm 3 mps 635 mmHg 73%
    07:00 +2°C° 0.3 mm 3 mps 636 mmHg 70%
    08:00 +4°C° 0.3 mm 2 mps 636 mmHg 67%
    09:00 +5°C° 0.3 mm 2 mps 637 mmHg 64%
    10:00 +5°C° 0.2 mm 2 mps 637 mmHg 62%
    11:00 +6°C° 0.2 mm 2 mps 637 mmHg 59%
    12:00 +7°C° 0.2 mm 2 mps 637 mmHg 57%
    13:00 +7°C° 0.2 mm 2 mps 637 mmHg 57%
    14:00 +7°C° 0.2 mm 2 mps 637 mmHg 56%
    15:00 +7°C° 0.2 mm 2 mps 637 mmHg 56%
    16:00 +6°C° 0.2 mm 2 mps 637 mmHg 58%
    17:00 +6°C° 0.2 mm 2 mps 637 mmHg 60%
    18:00 +5°C° 0.2 mm 2 mps 637 mmHg 61%
    19:00 +4°C° 0 mm 2 mps 637 mmHg 65%
    20:00 +4°C° 0 mm 2 mps 638 mmHg 68%
    21:00 +3°C° 0 mm 2 mps 638 mmHg 71%
    22:00 +2°C° 0 mm 2 mps 638 mmHg 71%
    23:00 +2°C° 0 mm 2 mps 638 mmHg 72%

    Day after tomorrow, 21 April, Sunday

    Time Temperature Precipitation Wind Pressure Humidity
    00:00 +2°C° 0 mm 2 mps 638 mmHg 72%
    01:00 +2°C° 0 mm 2 mps 638 mmHg 72%
    02:00 +2°C° 0 mm 2 mps 638 mmHg 72%
    03:00 +1°C° 0 mm 2 mps 638 mmHg 71%
    04:00 +2°C° 0.2 mm 2 mps 638 mmHg 71%
    05:00 +2°C° 0.2 mm 2 mps 638 mmHg 71%
    06:00 +2°C° 0.2 mm 2 mps 638 mmHg 71%
    07:00 +3°C° 0.2 mm 2 mps 639 mmHg 67%
    08:00 +4°C° 0.2 mm 2 mps 639 mmHg 63%
    09:00 +6°C° 0.2 mm 1 mps 639 mmHg 59%
    10:00 +6°C° 0.1 mm 2 mps 639 mmHg 57%
    11:00 +7°C° 0.1 mm 2 mps 639 mmHg 56%
    12:00 +8°C° 0.1 mm 2 mps 639 mmHg 54%
    13:00 +8°C° 0.1 mm 2 mps 639 mmHg 54%
    14:00 +8°C° 0.1 mm 2 mps 638 mmHg 54%
    15:00 +9°C° 0.1 mm 2 mps 638 mmHg 54%
    16:00 +8°C° 0.2 mm 2 mps 638 mmHg 57%
    17:00 +7°C° 0.2 mm 3 mps 638 mmHg 60%
    18:00 +7°C° 0.2 mm 3 mps 638 mmHg 64%
    19:00 +5°C° 0.2 mm 4 mps 638 mmHg 66%
    20:00 +4°C° 0.2 mm 4 mps 638 mmHg 68%
    21:00 +3°C° 0.2 mm 4 mps 639 mmHg 71%
    22:00 +3°C° 0.1 mm 4 mps 639 mmHg 71%
    23:00 +1°C° 0.1 mm 4 mps 639 mmHg 72%

    22 April, Monday

    Time Temperature Precipitation Wind Pressure Humidity
    00:00 +1°C° 0.1 mm 4 mps 638 mmHg 72%
    01:00 +1°C° 0.1 mm 4 mps 638 mmHg 72%
    02:00 0°C° 0.1 mm 4 mps 638 mmHg 72%
    03:00 0°C° 0.1 mm 4 mps 638 mmHg 72%
    04:00 0°C° 0 mm 4 mps 638 mmHg 72%
    05:00 0°C° 0 mm 4 mps 638 mmHg 72%
    06:00 0°C° 0 mm 4 mps 638 mmHg 72%
    07:00 +1°C° 0 mm 4 mps 638 mmHg 67%
    08:00 +4°C° 0 mm 3 mps 638 mmHg 61%
    09:00 +5°C° 0 mm 3 mps 639 mmHg 56%
    10:00 +7°C° 0 mm 3 mps 639 mmHg 55%
    11:00 +6°C° 0 mm 4 mps 638 mmHg 53%
    12:00 +7°C° 0 mm 4 mps 638 mmHg 52%
    13:00 +7°C° 0.1 mm 4 mps 638 mmHg 53%
    14:00 +7°C° 0.1 mm 5 mps 638 mmHg 53%
    15:00 +7°C° 0.1 mm 5 mps 638 mmHg 54%
    16:00 +6°C° 0.1 mm 5 mps 638 mmHg 57%
    17:00 +5°C° 0.1 mm 5 mps 638 mmHg 60%
    18:00 +4°C° 0.1 mm 4 mps 638 mmHg 63%
    19:00 +4°C° 0.2 mm 4 mps 639 mmHg 65%
    20:00 +3°C° 0.2 mm 4 mps 639 mmHg 67%
    21:00 +3°C° 0.2 mm 3 mps 640 mmHg 69%
    22:00 +3°C° 0.2 mm 3 mps 640 mmHg 70%
    23:00 +3°C° 0.2 mm 3 mps 640 mmHg 71%

    23 April, Tuesday

    Time Temperature Precipitation Wind Pressure Humidity
    00:00 +3°C° 0.2 mm 2 mps 640 mmHg 72%
    01:00 +3°C° 0.2 mm 2 mps 640 mmHg 73%
    02:00 +3°C° 0.2 mm 2 mps 640 mmHg 74%
    03:00 +2°C° 0.2 mm 2 mps 640 mmHg 75%
    04:00 +2°C° 0.2 mm 2 mps 641 mmHg 75%
    05:00 +2°C° 0.2 mm 2 mps 641 mmHg 75%
    06:00 +3°C° 0.2 mm 1 mps 641 mmHg 76%
    07:00 +4°C° 0.2 mm 1 mps 642 mmHg 71%
    08:00 +5°C° 0.2 mm 1 mps 642 mmHg 66%
    09:00 +6°C° 0.2 mm 1 mps 642 mmHg 62%
    10:00 +7°C° 0.1 mm 1 mps 643 mmHg 59%
    11:00 +8°C° 0.1 mm 1 mps 643 mmHg 57%
    12:00 +9°C° 0.1 mm 1 mps 643 mmHg 54%
    13:00 +9°C° 0.2 mm 1 mps 643 mmHg 54%
    14:00 +10°C° 0.2 mm 1 mps 643 mmHg 54%
    15:00 +10°C° 0.2 mm 1 mps 643 mmHg 53%
    16:00 +9°C° 0.2 mm 1 mps 643 mmHg 56%
    17:00 +9°C° 0.2 mm 1 mps 643 mmHg 58%
    18:00 +8°C° 0.2 mm 1 mps 643 mmHg 61%
    19:00 +8°C° 0.2 mm 1 mps 643 mmHg 64%
    20:00 +7°C° 0.2 mm 1 mps 644 mmHg 68%
    21:00 +6°C° 0.2 mm 1 mps 644 mmHg 72%
    22:00 +5°C° 0.1 mm 1 mps 644 mmHg 73%
    23:00 +5°C° 0.1 mm 1 mps 644 mmHg 74%

    24 April, Wednesday

    Time Temperature Precipitation Wind Pressure Humidity
    00:00 +4°C° 0.1 mm 1 mps 644 mmHg 75%
    01:00 +4°C° 0.1 mm 1 mps 644 mmHg 75%
    02:00 +4°C° 0.1 mm 1 mps 644 mmHg 76%
    03:00 +3°C° 0.1 mm 1 mps 644 mmHg 76%
    04:00 +4°C° 0.1 mm 1 mps 644 mmHg 75%
    05:00 +4°C° 0.1 mm 1 mps 644 mmHg 74%
    06:00 +4°C° 0.1 mm 1 mps 645 mmHg 74%
    07:00 +5°C° 0.1 mm 1 mps 645 mmHg 69%
    08:00 +7°C° 0.1 mm 1 mps 645 mmHg 64%
    09:00 +8°C° 0.1 mm 1 mps 645 mmHg 60%
    10:00 +8°C° 0.1 mm 1 mps 645 mmHg 58%
    11:00 +9°C° 0.1 mm 1 mps 644 mmHg 56%
    12:00 +10°C° 0.1 mm 1 mps 644 mmHg 54%
    13:00 +10°C° 0.2 mm 1 mps 644 mmHg 54%
    14:00 +10°C° 0.2 mm 1 mps 643 mmHg 54%
    15:00 +10°C° 0.2 mm 1 mps 643 mmHg 54%
    16:00 +10°C° 0.3 mm 1 mps 643 mmHg 57%
    17:00 +9°C° 0.3 mm 1 mps 643 mmHg 59%
    18:00 +9°C° 0.3 mm 1 mps 642 mmHg 62%
    19:00 +8°C° 0.3 mm 1 mps 643 mmHg 65%
    20:00 +8°C° 0.3 mm 1 mps 643 mmHg 68%
    21:00 +7°C° 0.3 mm 1 mps 643 mmHg 71%
    22:00 +6°C° 0.2 mm 1 mps 643 mmHg 72%
    23:00 +6°C° 0.2 mm 1 mps 643 mmHg 72%
    Show more